Regional Weather Roundup
Issued by NWS Portland, ME

Current Version | Previous Version | Text Only | Print | Product List | Glossary Off
Versions: 1 2 3 4 5 6 7 8 9 10 11 12 13 14 15 16 17 18 19 20 21 22 23 24 25 26 27 28 29 30 31 32 33 34 35 36 37 38 39 40 41 42 43 44 45 46 47 48 49 50

000
ASUS41 KGYX 241610
RWRGYX
WEATHER ROUNDUP FOR MAINE AND NEW HAMPSHIRE
NATIONAL WEATHER SERVICE GRAY ME
1200 PM EDT SAT JUN 24 2017

MEZ002-005-006-010-012-015-018-020-021-024-026-027-029-241700-
MAINE

CITY           SKY/WX    TMP DP  RH WIND       PRES   REMARKS
PORTLAND       CLOUDY    80  68  66 W6        29.52S
SANFORD        CLOUDY    79  70  74 SW6       29.53F
BAR HARBOR     CLOUDY    64  63  96 SW12      29.52R FOG
WISCASSET      CLOUDY    80  69  69 VRB6      29.53R
ROCKLAND       MOSUNNY   74  69  85 SW9       29.53R
FRYEBURG       CLOUDY    79  71  76 VRB6      29.53R
LEWISTONAUBURN MOSUNNY   76  70  82 W3        29.53R
AUGUSTA        CLOUDY    74  68  81 SW5       29.53R
WATERVILLE     CLOUDY    73  69  87 SW9       29.50R
BANGOR         CLOUDY    76  70  82 W8        29.50R
GREENVILLE       N/A     69  64  84 VRB3      29.51R
MILLINOCKET    CLOUDY    73  69  87 VRB3      29.47R
HOULTON        CLOUDY    70  69  97 S8        29.43R
PRESQUE ISLE   LGT RAIN  63  61  93 NW15      29.45R
FRENCHVILLE    CLOUDY    63  57  81 NW13      29.44R
CARIBOU        CLOUDY    63  60  90 N9        29.43R
$$

NHZ002-005-008-009-011-012-014-241700-
NEW HAMPSHIRE

CITY           SKY/WX    TMP DP  RH WIND       PRES   REMARKS
PORTSMOUTH     MOSUNNY   83  69  62 SW9       29.53S
ROCHESTER      CLOUDY    79  69  71 VRB3      29.53F
NASHUA         CLOUDY    78  68  71 W5        29.56F
MANCHESTER     CLOUDY    77  67  71 W5        29.55S
CONCORD        CLOUDY    79  71  76 W8        29.56R
LACONIA        CLOUDY   N/A N/A N/A W14       29.57R
PLYMOUTH       PTSUNNY   76  65  69 W7        29.56R
BERLIN         LGT RAIN  74  62  66 VRB5      29.57R
WHITEFIELD     CLOUDY    71  63  75 VRB7      29.61R
JAFFREY        CLOUDY    75  67  76 W9        29.62R
KEENE          CLOUDY    74  70  87 VRB3      29.60R
LEBANON        CLOUDY    80  66  62 W12       29.58R
MT WASHINGTON  FOG       50  50 100 W52G59      N/A  VSB 0
$$

VTZ005-007-008-241700-
VERMONT

CITY           SKY/WX    TMP DP  RH WIND       PRES   REMARKS
ST JOHNSBURY     N/A     74  63  68 MISG      29.58R
MONTPELIER     SUNNY     73  61  65 NW13G18   29.66R
BURLINGTON     MOSUNNY   77  60  55 NW13G18   29.62R
$$

MAZ007-012-024-CTZ003-RIZ002-NYZ038-NYZ072-241700-
SOUTHERN NEW ENGLAND AND NY

CITY           SKY/WX    TMP DP  RH WIND       PRES   REMARKS
BOSTON         CLOUDY    76  73  91 SW10      29.57R
WORCESTER      CLOUDY    71  65  81 W7        29.61F
NANTUCKET      CLOUDY    65  65 100 SW18G26   29.62S FOG
PROVIDENCE     PTSUNNY   78  73  84 W9G16     29.59R
HARTFORD       CLOUDY    79  65  62 W9        29.61R
ALBANY         MOSUNNY   78  60  53 W21G30    29.67R
NEW YORK CITY  MOSUNNY   83  62  49 NW22G30   29.67R
$$

ANZ081-ANZ082-ANZ150-NHZ014-MEZ023>029-241700-
COASTAL MARINE OBSERVATIONS

STATION/POSITION TIME  TEMP    WIND        PRES    WAVE
                       AIR SEA DIR/SP/G            HT/PER
                 (UTC) (F)     (DEG/KT/KT) (MB)    (FT/S)
MATINICUS ROCK   1500   59     240/ 20/ 20  999.4R
ISLE OF SHOALS   1500   69     200/ 15/ 17 1000.1R
JEFFREYS LEDGE   1506      60                N/A     4/ 6
CASHES LEDGE BUO 1450   64 59              1000.0    6/ 7
GEORGES BANK BUO 1450   62 54              1006.2    6/ 6
$$

.............KEY..............
   WCI - WIND CHILL
   TC  - TEMPERATURE IN CELSIUS
   VSB - VISIBILITY IN MILES
   HX  - HEAT INDEX
   FAIR- INDICATES FEW OR NO CLOUDS BELOW 12,000 FT, WITH NO
         SIGNIFICANT WEATHER AND/OR OBSTRUCTIONS TO VISIBILITY.





USA.gov is the U.S. government's official web portal to all federal, state and local government web resources and services.